JS2QVS-13 Weather Reports


time (UTC)temp
C
wind
direction
speed
KPH
gust
KPH
rain 1hr
cm
rain 24hr
cm
rain mn
cm
humidity
%
barometer
mb
20260505092741 18 78 9.7 11.3 0.00 0.00 0.00 44 1017.7
20260505091741 18 120 8.0 14.5 0.00 0.00 0.00 44 1017.6
20260505090741 18 86 14.5 20.9 0.00 0.00 0.00 44 1017.6
20260505085741 18 153 4.8 8.0 0.00 0.00 0.00 47 1017.5
20260505084741 18 88 11.3 16.1 0.00 0.00 0.00 44 1017.4
20260505083741 18 30 4.8 9.7 0.00 0.00 0.00 44 1017.3
20260505082741 19 104 8.0 11.3 0.00 0.00 0.00 42 1017.4
20260505081743 20 97 9.7 12.9 0.00 0.00 0.00 41 1017.4
20260505080743 20 87 11.3 14.5 0.00 0.00 0.00 38 1017.3
20260505075743 20 143 4.8 12.9 0.00 0.00 0.00 38 1017.2
20260505074742 20 140 4.8 11.3 0.00 0.00 0.00 37 1017.3
20260505073742 20 88 4.8 22.5 0.00 0.00 0.00 39 1017.2
20260505072742 20 77 8.0 14.5 0.00 0.00 0.00 38 1017.1
20260505071742 20 70 8.0 11.3 0.00 0.00 0.00 38 1017.1
20260505070742 20 196 4.8 14.5 0.00 0.00 0.00 42 1017.1
20260505065742 20 98 4.8 11.3 0.00 0.00 0.00 44 1017.2
20260505064742 20 81 4.8 9.7 0.00 0.00 0.00 43 1017.0
20260505062741 20 176 9.7 12.9 0.00 0.00 0.00 40 1016.9
20260505061741 20 237 8.0 12.9 0.00 0.00 0.00 39 1016.9
20260505060741 20 151 9.7 12.9 0.00 0.00 0.00 40 1016.9
20260505055741 20 212 8.0 14.5 0.00 0.00 0.00 39 1016.8
20260505054741 20 230 4.8 12.9 0.00 0.00 0.00 42 1016.7
20260505053741 20 171 9.7 16.1 0.00 0.00 0.00 40 1016.7
20260505052743 20 164 8.0 12.9 0.00 0.00 0.00 41 1016.7
20260505051743 20 74 12.9 22.5 0.00 0.00 0.00 39 1016.6
20260505050743 20 258 8.0 16.1 0.00 0.00 0.00 42 1016.8
20260505041742 20 133 8.0 9.7 0.00 0.00 0.00 43 1016.7
20260505040742 20 192 4.8 19.3 0.00 0.00 0.00 40 1016.7
20260505035743 20 227 8.0 12.9 0.00 0.00 0.00 43 1016.7
20260505034742 20 121 8.0 11.3 0.00 0.00 0.00 42 1016.7
20260505032741 20 140 3.2 12.9 0.00 0.00 0.00 43 1016.7
20260505030742 20 218 9.7 19.3 0.00 0.00 0.00 42 1016.7
20260505023742 20 267 4.8 11.3 0.00 0.00 0.00 42 1016.5
20260505022741 20 258 8.0 12.9 0.00 0.00 0.00 45 1016.6
20260505015741 20 106 4.8 14.5 0.00 0.00 0.00 46 1016.5
20260505014741 20 224 8.0 11.3 0.00 0.00 0.00 47 1016.4
20260505013743 20 190 9.7 12.9 0.00 0.00 0.00 47 1016.4
20260505012743 20 233 8.0 12.9 0.00 0.00 0.00 44 1016.5
20260505011743 20 156 9.7 14.5 0.00 0.00 0.00 45 1016.3
20260505010742 20 93 11.3 16.1 0.00 0.00 0.00 44 1016.4
20260505005742 20 231 4.8 9.7 0.00 0.00 0.00 44 1016.5
20260505004742 19 132 4.8 9.7 0.00 0.00 0.00 45 1016.4
20260505003742 18 238 8.0 12.9 0.00 0.00 0.00 46 1016.3
20260505001742 18 106 8.0 14.5 0.00 0.00 0.00 46 1016.3
20260505000741 18 78 9.7 14.5 0.00 0.00 0.00 45 1016.4
20260504235741 18 74 9.7 11.3 0.00 0.00 0.00 46 1016.0
20260504234741 18 88 9.7 20.9 0.00 0.00 0.00 46 1015.9
20260504233742 18 56 1.6 3.2 0.00 0.00 0.00 44 1015.8
20260504232743 18 13 4.8 8.0 0.00 0.00 0.00 43 1015.8
20260504231743 18 287 0.0 0.0 0.00 0.00 0.00 44 1015.8
20260504230742 18 195 0.0 1.6 0.00 0.00 0.00 43 1015.7
20260504225742 17 243 0.0 0.0 0.00 0.00 0.00 47 1015.5
20260504224742 17 256 0.0 1.6 0.00 0.00 0.00 48 1015.5
20260504223742 16 269 0.0 3.2 0.00 0.00 0.00 49 1015.5
20260504222742 16 264 1.6 3.2 0.00 0.00 0.00 50 1015.2
20260504221742 16 251 1.6 3.2 0.00 0.00 0.00 51 1015.1
20260504220742 15 253 1.6 3.2 0.00 0.00 0.00 52 1015.0
20260504215741 15 255 0.0 1.6 0.00 0.00 0.00 55 1014.7
20260504214742 14 271 0.0 1.6 0.00 0.00 0.00 56 1014.5
20260504213741 14 267 3.2 4.8 0.00 0.00 0.00 57 1014.3
20260504212741 13 273 1.6 4.8 0.00 0.00 0.00 57 1014.2
20260504211741 13 258 1.6 3.2 0.00 0.00 0.00 58 1014.1
20260504205743 13 260 1.6 4.8 0.00 0.00 0.00 60 1013.7
20260504204743 12 254 1.6 3.2 0.00 0.00 0.00 59 1013.3
20260504203742 13 255 0.0 1.6 0.00 0.00 0.00 61 1013.3
20260504202742 13 266 0.0 3.2 0.00 0.00 0.00 61 1013.1
20260504201742 13 249 0.0 1.6 0.00 0.00 0.00 60 1012.6
20260504200742 13 29 1.6 1.6 0.00 0.00 0.00 59 1012.4
20260504195742 13 244 0.0 1.6 0.00 0.00 0.00 60 1012.0
20260504194742 13 270 3.2 8.0 0.00 0.03 0.00 59 1011.7
20260504193742 13 267 4.8 14.5 0.00 0.03 0.00 59 1011.5
20260504192742 13 264 4.8 8.0 0.00 0.13 0.00 60 1011.4
20260504191742 13 269 4.8 11.3 0.00 0.25 0.00 60 1011.2
20260504190741 13 269 8.0 11.3 0.00 0.30 0.00 61 1011.1
20260504185741 13 264 8.0 9.7 0.00 0.38 0.00 59 1011.1
20260504184741 13 269 4.8 8.0 0.00 0.53 0.00 59 1011.1
20260504183741 13 259 4.8 9.7 0.00 0.71 0.00 59 1010.8
20260504182741 13 257 3.2 4.8 0.00 0.79 0.00 59 1010.7
20260504181743 13 275 3.2 4.8 0.00 0.79 0.00 60 1010.6
20260504180743 13 264 3.2 3.2 0.00 0.79 0.00 59 1010.4
20260504175743 13 271 8.0 12.9 0.00 0.79 0.00 58 1010.1
20260504173742 14 270 4.8 11.3 0.00 0.79 0.00 59 1010.2
20260504172742 14 278 4.8 11.3 0.00 0.79 0.00 58 1010.3
20260504171742 14 263 4.8 8.0 0.00 0.79 0.00 57 1010.0
20260504170742 15 264 3.2 8.0 0.00 0.79 0.00 57 1009.8
20260504150743 15 265 4.8 11.3 0.00 1.04 0.00 58 1008.5
20260504140742 15 277 8.0 12.9 0.00 3.12 1.09 55 1008.1
20260504130741 16 267 8.0 11.3 0.00 4.42 1.09 55 1007.6